McAllen, TX

10:35 PM CST on February 13, 2016 (GMT -0600)
McAllen Miller International

Weather History for KMFE - July, 2013

Change the Weather History Date:

Tuesday, July 30, 2013

  Actual Average Record
Temperature  
Mean Temperature 91 °F 87 °F  
Max Temperature 102 °F 98 °F 106 °F (2009)
Min Temperature 80 °F 77 °F 65 °F (1974)
Degree Days  
Heating Degree Days 0 0  
Month to date heating degree days 0 0  
Since 1 June heating degree days 0 0  
Since 1 July heating degree days 0 0  
Cooling Degree Days 26 22  
Month to date cooling degree days 674 650  
Year to date cooling degree days 2647 2533  
Since 1 June cooling degree days 1351 1278  
Growing Degree Days 40 (Base 50)    
Moisture  
Dew Point 73 °F    
Average Humidity 62    
Maximum Humidity 91    
Minimum Humidity 33    
Precipitation  
Precipitation 0.00 in 0.05 in 1.15 in (1947)
Month to date precipitation 1.16 1.96  
Year to date precipitation 5.46 11.32  
Sea Level Pressure  
Sea Level Pressure 30.02 in    
Wind  
Wind Speed 16 mph (SSE)    
Max Wind Speed 24 mph    
Max Gust Speed 31 mph    
Visibility 10 miles    
Events      
T = Trace of Precipitation, MM = Missing Value Source: NWS Daily Summary

Daily Weather History Graph

Daily Weather History Graph

Search for Another Location

Airport or City:

Trip Planner

Search our weather history database for the weather conditions in past years. The results will help you decide how hot, cold, wet, or windy it might be!

Date:

Astronomy

Jul. 30, 2013 Rise Set
Actual Time 6:57 AM CDT 8:20 PM CDT
Civil Twilight 6:32 AM CDT 8:45 PM CDT
Nautical Twilight 6:03 AM CDT 9:15 PM CDT
Astronomical Twilight 5:32 AM CDT 9:45 PM CDT
Moon 1:11 AM CDT (7/30) 2:43 PM CDT (7/30)
Length of Visible Light 14h 12m
Length of Day
13h 22m
Last Quarter, 41% of the Moon is Illuminated
Jul 30
Last Quarter
Aug 6
New
Aug 14
First Quarter
Aug 20
Full
Aug 28
Last Quarter

Hourly Weather History & Observations

Time (CDT) Temp. Heat Index Dew Point Humidity Pressure Visibility Wind Dir Wind Speed Gust Speed Precip Events Conditions
12:53 AM 82.9 °F 90.8 °F 75.9 °F 79% 30.04 in 10.0 mi SSE 15.0 mph - N/A   Overcast
1:53 AM 82.9 °F 90.8 °F 75.9 °F 79% 30.02 in 10.0 mi SSE 15.0 mph 25.3 mph N/A   Overcast
2:53 AM 82.0 °F 90.2 °F 77.0 °F 85% 30.02 in 10.0 mi SSE 12.7 mph - N/A   Overcast
3:32 AM 82.4 °F 90.9 °F 77.0 °F 84% 30.02 in 10.0 mi SSE 12.7 mph - N/A   Scattered Clouds
3:53 AM 82.0 °F 90.2 °F 77.0 °F 85% 30.01 in 10.0 mi SSE 11.5 mph - N/A   Scattered Clouds
4:05 AM 80.6 °F 87.1 °F 77.0 °F 89% 30.02 in 10.0 mi SSE 13.8 mph - N/A   Mostly Cloudy
4:16 AM 80.6 °F 87.1 °F 77.0 °F 89% 30.02 in 10.0 mi SSE 11.5 mph - N/A   Scattered Clouds
4:53 AM 81.0 °F 87.9 °F 77.0 °F 88% 30.02 in 10.0 mi SSE 12.7 mph - N/A   Scattered Clouds
5:21 AM 80.6 °F 87.1 °F 77.0 °F 89% 30.02 in 10.0 mi SSE 13.8 mph - N/A   Mostly Cloudy
5:37 AM 80.6 °F 87.1 °F 77.0 °F 89% 30.02 in 10.0 mi SSE 15.0 mph - N/A   Scattered Clouds
5:53 AM 81.0 °F 87.9 °F 77.0 °F 88% 30.01 in 10.0 mi SSE 12.7 mph 23.0 mph N/A   Partly Cloudy
6:53 AM 80.1 °F 85.8 °F 77.0 °F 90% 30.03 in 10.0 mi SSE 10.4 mph 18.4 mph N/A   Partly Cloudy
7:18 AM 80.6 °F 87.1 °F 77.0 °F 89% 30.04 in 9.0 mi SSE 9.2 mph - N/A   Mostly Cloudy
7:53 AM 81.0 °F 87.9 °F 77.0 °F 88% 30.04 in 10.0 mi SSE 12.7 mph - N/A   Mostly Cloudy
8:40 AM 82.4 °F 90.9 °F 77.0 °F 84% 30.06 in 10.0 mi SSE 10.4 mph - N/A   Scattered Clouds
8:53 AM 84.0 °F 92.6 °F 75.9 °F 76% 30.05 in 10.0 mi SSE 15.0 mph - N/A   Partly Cloudy
9:53 AM 88.0 °F 96.5 °F 73.9 °F 63% 30.06 in 10.0 mi SSE 18.4 mph 23.0 mph N/A   Clear
10:53 AM 91.9 °F 98.4 °F 71.1 °F 50% 30.06 in 10.0 mi South 15.0 mph 23.0 mph N/A   Clear
11:53 AM 95.0 °F 102.5 °F 71.1 °F 46% 30.05 in 10.0 mi SSE 15.0 mph 24.2 mph N/A   Clear
12:53 PM 99.0 °F 102.9 °F 66.0 °F 34% 30.03 in 10.0 mi SE 16.1 mph 25.3 mph N/A   Clear
1:53 PM 99.0 °F 102.9 °F 66.0 °F 34% 30.00 in 10.0 mi SSE 18.4 mph 24.2 mph N/A   Clear
2:53 PM 100.9 °F 106.0 °F 66.9 °F 33% 29.98 in 10.0 mi SE 20.7 mph 24.2 mph N/A   Clear
3:53 PM 100.9 °F 106.0 °F 66.9 °F 33% 29.96 in 10.0 mi SE 20.7 mph 28.8 mph N/A   Clear
4:53 PM 100.0 °F 104.2 °F 66.0 °F 33% 29.96 in 10.0 mi SSE 17.3 mph 28.8 mph N/A   Clear
5:53 PM 97.0 °F 100.4 °F 66.0 °F 36% 29.96 in 10.0 mi SE 23.0 mph 28.8 mph N/A   Clear
6:53 PM 93.9 °F 100.8 °F 71.1 °F 47% 29.97 in 10.0 mi SE 23.0 mph 27.6 mph N/A   Clear
7:53 PM 89.1 °F 94.1 °F 70.0 °F 53% 29.98 in 10.0 mi SE 19.6 mph - N/A   Clear
8:53 PM 86.0 °F 91.5 °F 71.1 °F 61% 29.99 in 10.0 mi SE 18.4 mph - N/A   Clear
9:53 PM 84.0 °F 89.0 °F 71.1 °F 65% 30.01 in 10.0 mi SE 15.0 mph - N/A   Clear
10:53 PM 82.9 °F 88.8 °F 73.0 °F 72% 30.03 in 10.0 mi SE 15.0 mph 23.0 mph N/A   Clear
11:53 PM 82.0 °F 87.9 °F 73.9 °F 76% 30.04 in 10.0 mi SE 12.7 mph 23.0 mph N/A   Clear